Flag for U.S.A. Weather past 2 weeks in Independence, Missouri, U.S.A.

Now
72 °F

Clear.


Feels Like: 69 °F
Forecast: 70 / 87 °F
Wind: 5 mph from South

Location: Lee's Summit Municipal Airport

Current Time: Sep 2, 2014 at 11:46:11 PM

Latest Report: Sep 2, 2014 at 10:53 PM


Visibility: 10 mi

Pressure: 29.98 "Hg

Humidity: 91%

Dew point: 69 °F

Location of IndependenceLocation

Historic Weather in Independence — Graph

°F

Independence temperature yesterday

Maximum temperature yesterday: 78 °F (at 2:53 PM)
Minimum temperature yesterday: 71 °F (at 10:53 PM)
Average temperature yesterday: 75 °F

Past Weeks' High & Low Weather Summary

 TemperatureHumidityPressure
High96 °F (Aug 23, 4:53 PM)100% (Sep 2, 3:00 AM)30.13 "Hg (Sep 2, 3:00 AM)
Low68 °F (Aug 31, 10:59 PM)34% (Aug 23, 5:53 PM)29.70 "Hg (Aug 31, 8:53 PM)
Average81 °F69%29.90 "Hg
* Reported Aug 18 10:53 PM — Sep 2 10:53 PM, Independence, Weather by CustomWeather, © 2014

Note: Actual official high and low records may vary slightly from our data, if they occured in-between our weather recording intervals... More about our weather records

Advertising

Independence weather history for previous 24 hours

 ConditionsComfort  
Time TempWeatherWind HumidityBarometerVisibility
10:53 PM
Sep 2
72 °FClear.5 mph91%29.98 "Hg10 mi
9:53 PM73 °FClear.5 mph88%29.96 "Hg10 mi
8:53 PM75 °FClear.3 mph82%29.95 "Hg10 mi
7:53 PM76 °FSunny.No wind80%29.93 "Hg10 mi
6:53 PM79 °FSunny.No wind74%29.92 "Hg10 mi
5:53 PM80 °FSunny.3 mph69%29.93 "Hg10 mi
4:53 PM80 °FScattered clouds.6 mph74%29.93 "Hg10 mi
3:53 PM82 °FScattered clouds.6 mph65%29.95 "Hg10 mi
2:53 PM80 °FScattered clouds.7 mph64%29.98 "Hg10 mi
1:53 PM78 °FScattered clouds.7 mph69%30.01 "Hg10 mi
12:53 PM77 °FBroken clouds.6 mph71%30.01 "Hg10 mi
11:53 AM75 °FBroken clouds.3 mph82%30.00 "Hg8 mi
10:53 AM72 °FOvercast.No wind87%29.99 "Hg7 mi
9:53 AM71 °FFog.No wind90%29.98 "Hg4 mi
9:01 AM70 °FFog.3 mph93%29.99 "Hg2 mi
7:53 AM70 °FFog.No wind97%29.95 "Hg3 mi
6:53 AM69 °FFog.No wind96%29.91 "Hg2 mi
5:53 AM70 °FFog.No wind97%29.90 "Hg4 mi
4:53 AM70 °FFog.7 mph97%29.90 "Hg3 mi
4:04 AM70 °FFog.5 mph97%29.94 "Hg5 mi
3:00 AM69 °FFog.3 mph100%29.93 "Hg1 mi
1:56 AM70 °FFog.3 mph97%29.90 "Hg2 mi
12:53 AM70 °FPassing clouds.5 mph97%29.90 "Hg10 mi
11:53 PM
Sep 1
71 °FClear.3 mph93%29.88 "Hg10 mi
11:02 PM71 °FThundershowers. Passing clouds.3 mph96%29.91 "Hg9 mi
Weather by CustomWeather, © 2014

See weather overviewHow to use our weather pages